"Pseudo-MPEC" for P222bNE

Created 2024 Dec 3 3:31:30 UT using Find_Orb

Click here for an explanation of pseudo-MPECs

 
 Astrometry: 
     P222bNE  C2024 10 30.59837607 03 16.503+36 36 02.18   ~C30H 22.02GVNEOCPF51
     P222bNE  C2024 10 30.60889307 03 16.475+36 36 10.17   ~C30H 22.68GVNEOCPF51
     P222bNE  C2024 10 30.61941907 03 16.491+36 36 19.14   ~C30H 23.49GVNEOCPF51
     P222bNE  C2024 10 30.62988107 03 16.479+36 36 27.02   ~C30H 23.16GVNEOCPF51
     P222bNE* C2024 11 22.59793506 54 41.427+42 01 07.76   ~BMG2 22.12wXNEOCPF52
     P222bNE  C2024 11 22.60700106 54 40.990+42 01 15.35   ~BMG2 21.87wXNEOCPF52
     P222bNE  C2024 11 22.61607206 54 40.538+42 01 23.34   ~BMG2 21.97wXNEOCPF52
     P222bNE  C2024 11 22.62511006 54 40.094+42 01 31.07   ~BMG2 22.66wXNEOCPF52
     P222bNE KC2024 11 23.28890106 54 08.694+42 11 04.63   ~BN8H 22.27GVNEOCPV06
     P222bNE KC2024 11 23.29207806 54 08.539+42 11 07.48   ~BN8H 22.23GVNEOCPV06
     P222bNE KC2024 11 24.33642206 53 16.472+42 26 10.28   ~BO8l 22.20GVNEOCPV06
     P222bNE KC2024 11 24.34282006 53 16.127+42 26 15.68   ~BO8l 22.48GVNEOCPV06
     P222bNE KC2024 11 24.34928706 53 15.770+42 26 21.23   ~BO8l 22.33GVNEOCPV06
     P222bNE  C2024 11 30.51314906 47 20.657+43 53 35.14   ~C30H 22.07GVNEOCPF52
     P222bNE  C2024 11 30.52475206 47 19.860+43 53 44.81   ~C30H 22.24GVNEOCPF52
     P222bNE  C2024 11 30.53630806 47 19.124+43 53 54.76   ~C30H 21.84GVNEOCPF52
     P222bNE  C2024 11 30.54785506 47 18.360+43 54 04.43   ~C30H 21.99GVNEOCPF52

Station data:
(F51) Pan-STARRS 1, Haleakala  (N20.707234 W156.255910)  US/Hawaii.
   Observers J. Bulger, T. Lowe, A. Schultz, M. Willman. Measurers K.
   Chambers, S. Chastel, T. de Boer, L. Denneau, J. Fairlamb, H. Flewelling,
   M. Huber, C.-C. Lin, E. Magnier, Y. Ramanjooloo, R. Wainscoat, R. Weryk.
   1.8-m Ritchey-Chrétien + CCD.
(F52) Pan-STARRS 2, Haleakala  (N20.707382 W156.255910)  US/Hawaii.
   Observers J. Bulger, T. Dukes, T. Lowe, A. Schultz, M. Willman. Measurers
   K. Chambers, S. Chastel, T. de Boer, L. Denneau, J. Fairlamb, H.
   Flewelling, M. Huber, C.-C. Lin, E. Magnier, Y. Ramanjooloo, R. Wainscoat,
   R. Weryk. 1.8-m Ritchey-Chrétien + CCD.
(V06) Catalina Sky Survey-Kuiper  (N32.416871 W110.732550)  US/Arizona.
   Observers T. A. Pruyne, B. M. Africano, E. J. Christensen, G. A. Farneth,
   D. C. Fuls, A. R. Gibbs, A. D. Grauer, H. Gröller, J. A. Johnson, R. A.
   Kowalski, S. M. Larson, G. J. Leonard, D. Rankin, R. L. Seaman, F. C.
   Shelly, K. W. Wierzchoś. 1.55-m reflector + CCD.

Orbital elements:  P222bNE
   Perihelion 2023 Nov 11.80281 +/- 0.122 TT = 19:16:02 (JD 2460260.30281)
Epoch 2024 Nov 30.0 TT = JDT 2460644.5                           AutoNEOCP
M  69.79424078 +/- 0.039            (J2000 ecliptic)
n   0.18166254 +/- 5.23e-5          Peri.  276.18990 +/- 0.021
a   3.08763375 +/- 0.000593         Node    71.65153 +/- 0.0034
e   0.3180319 +/- 0.000164          Incl.   41.22101 +/- 0.0052
P   5.42549                H 17.55  G  0.15   U  6.1
q 2.10566768 +/- 0.000307    Q 4.06959982 +/- 0.00122
From 17 observations 2024 Oct. 30-Nov. 30; mean residual 0".18
Residuals in arcseconds: 
241030 F51  .04+  .14+    241122 F52  .01+  .02+    241124 V06  .45-  .14+    
241030 F51  .20-  .27-    241122 F52  .01-  .02-    241130 F52  .06+  .21-    
241030 F51  .10+  .30+    241123 V06  .09+  .01-    241130 F52  .24-  .20-    
241030 F51  .06+  .16-    241123 V06  .13+  .06+    241130 F52  .09+  .15+    
241122 F52  .00   .06+    241124 V06  .17-  .37+    241130 F52  .11+  .24+    
241122 F52  .09+  .16-    241124 V06  .27-  .21+    

Ephemerides (geocentric):
Date (UTC) HH   RA             Dec           delta  r     elong  mag " sig PA
---- --------  ------------   ------------  ------ ------ -----  --- --------
2024 12 03 04  06 44 23.337   +44 29 54.40  2.1975 3.0634 145.8 22.4 .131  50
2024 12 03 05  06 44 20.441   +44 30 28.19  2.1974 3.0635 145.8 22.4 .132  50
2024 12 03 06  06 44 17.542   +44 31 01.96  2.1973 3.0636 145.9 22.4 .133  50
2024 12 03 07  06 44 14.640   +44 31 35.71  2.1972 3.0638 145.9 22.4 .135  50
2024 12 03 08  06 44 11.734   +44 32 09.46  2.1971 3.0639 145.9 22.4 .136  50
2024 12 03 09  06 44 08.825   +44 32 43.18  2.1970 3.0640 146.0 22.4 .137  50
2024 12 03 10  06 44 05.912   +44 33 16.89  2.1969 3.0641 146.0 22.4 .138  50
2024 12 03 11  06 44 02.997   +44 33 50.59  2.1968 3.0643 146.0 22.4 .139  50
2024 12 03 12  06 44 00.077   +44 34 24.27  2.1967 3.0644 146.1 22.4 .140  50
2024 12 03 13  06 43 57.155   +44 34 57.93  2.1966 3.0645 146.1 22.4 .141  50
2024 12 03 14  06 43 54.229   +44 35 31.58  2.1965 3.0647 146.1 22.4 .142  50
2024 12 03 15  06 43 51.299   +44 36 05.22  2.1964 3.0648 146.2 22.4 .143  50
2024 12 03 16  06 43 48.367   +44 36 38.83  2.1963 3.0649 146.2 22.4 .144  50
2024 12 03 17  06 43 45.431   +44 37 12.44  2.1962 3.0651 146.3 22.4 .146  50
2024 12 03 18  06 43 42.492   +44 37 46.02  2.1961 3.0652 146.3 22.4 .147  50
2024 12 03 19  06 43 39.549   +44 38 19.59  2.1960 3.0653 146.3 22.4 .148  50
2024 12 03 20  06 43 36.603   +44 38 53.15  2.1959 3.0655 146.4 22.4 .149  50
2024 12 03 21  06 43 33.654   +44 39 26.69  2.1958 3.0656 146.4 22.3 .150  50
2024 12 03 22  06 43 30.701   +44 40 00.21  2.1957 3.0657 146.4 22.3 .151  50
2024 12 03 23  06 43 27.745   +44 40 33.72  2.1956 3.0658 146.5 22.3 .152  50
2024 12 04 00  06 43 24.786   +44 41 07.21  2.1955 3.0660 146.5 22.3 .153  49
2024 12 04 01  06 43 21.823   +44 41 40.69  2.1954 3.0661 146.5 22.3 .155  49
2024 12 04 02  06 43 18.857   +44 42 14.15  2.1953 3.0662 146.6 22.3 .156  49
2024 12 04 03  06 43 15.888   +44 42 47.59  2.1952 3.0664 146.6 22.3 .157  49
2024 12 04 04  06 43 12.915   +44 43 21.02  2.1951 3.0665 146.6 22.3 .158  49
2024 12 04 05  06 43 09.939   +44 43 54.43  2.1950 3.0666 146.7 22.3 .159  49
2024 12 04 06  06 43 06.960   +44 44 27.83  2.1949 3.0668 146.7 22.3 .160  49
2024 12 04 07  06 43 03.978   +44 45 01.21  2.1948 3.0669 146.7 22.3 .161  49
2024 12 04 08  06 43 00.992   +44 45 34.57  2.1947 3.0670 146.8 22.3 .163  49
2024 12 04 09  06 42 58.003   +44 46 07.92  2.1946 3.0672 146.8 22.3 .164  49
2024 12 04 10  06 42 55.010   +44 46 41.25  2.1945 3.0673 146.8 22.3 .165  49
2024 12 04 11  06 42 52.015   +44 47 14.56  2.1944 3.0674 146.9 22.3 .166  49
2024 12 04 12  06 42 49.016   +44 47 47.86  2.1944 3.0675 146.9 22.3 .167  49
2024 12 04 13  06 42 46.014   +44 48 21.14  2.1943 3.0677 146.9 22.3 .168  49
2024 12 04 14  06 42 43.008   +44 48 54.40  2.1942 3.0678 147.0 22.3 .169  49
2024 12 04 15  06 42 40.000   +44 49 27.65  2.1941 3.0679 147.0 22.3 .171  49
2024 12 04 16  06 42 36.988   +44 50 00.88  2.1940 3.0681 147.0 22.3 .172  49
2024 12 04 17  06 42 33.972   +44 50 34.09  2.1939 3.0682 147.1 22.3 .173  49
2024 12 04 18  06 42 30.954   +44 51 07.29  2.1938 3.0683 147.1 22.3 .174  49
2024 12 04 19  06 42 27.932   +44 51 40.47  2.1937 3.0685 147.1 22.3 .175  49
2024 12 04 20  06 42 24.907   +44 52 13.63  2.1936 3.0686 147.2 22.3 .176  48
2024 12 04 21  06 42 21.879   +44 52 46.78  2.1936 3.0687 147.2 22.3 .178  48
2024 12 04 22  06 42 18.847   +44 53 19.91  2.1935 3.0688 147.2 22.3 .179  48
2024 12 04 23  06 42 15.813   +44 53 53.02  2.1934 3.0690 147.3 22.3 .180  48
2024 12 05 00  06 42 12.775   +44 54 26.12  2.1933 3.0691 147.3 22.3 .181  48
2024 12 05 01  06 42 09.734   +44 54 59.20  2.1932 3.0692 147.3 22.3 .182  48
2024 12 05 02  06 42 06.689   +44 55 32.26  2.1931 3.0694 147.4 22.3 .183  48
2024 12 05 03  06 42 03.642   +44 56 05.31  2.1930 3.0695 147.4 22.3 .185  48